[[{"header":{"parameterUnit":"m.s-1","parameterCategory":1,"la1":30.2991,"la2":30.254,"lo1":-89.0895,"lo2":-89.0444,"dy":0.0017,"dx":0.0017,"nx":28,"ny":28,"refTime":"2025-09-18T21:00:00:Z","depth":0,"parameterNumber":2,"parameterNumberName":"U-component_of_WINDS"},"data":[0,0,0,0,0,0,0,0,0,0,0,0,0,0,0,0,0,0,0,0,0,0,0,0,0,0,0,0,0,0,0,0,0,0,0,0,0,0,0,0,0,0,0,0,0,0,0,0,0,0,0,0,0,0,0,0,0,0,2.8876,2.8878,0,2.9039,2.9041,2.9042,2.9059,2.9057,2.9055,2.9054,2.9223,2.9229,2.9235,0,0,0,0,0,0,0,0,0,0,0,0,0,2.858,2.8585,2.8876,2.8878,2.888,2.9038,2.9041,2.9043,2.9059,2.9057,2.9055,2.9053,2.9221,2.9228,2.9235,0,0,0,0,0,0,0,0,0,0,0,0,0,2.8722,2.8587,2.8876,2.8907,2.8911,2.9038,2.9041,2.9044,2.9059,2.9057,2.9054,2.9052,2.9219,2.9227,2.9236,2.9344,0,0,2.9264,2.9268,0,0,0,0,0,0,0,0,2.8714,2.8733,2.89,2.8905,2.891,2.9026,2.8999,2.9144,2.906,2.9003,2.9053,2.9051,2.916,2.9173,2.921,2.9352,2.9359,2.9265,2.9271,2.9275,2.9277,0,0,0,0,0,0,0,2.8704,2.8726,2.894,2.8903,2.8909,2.8913,2.8931,2.9026,2.9094,2.9008,2.9009,2.9028,2.9162,2.9201,2.9214,2.9361,2.9265,2.9273,2.9279,2.9282,2.9598,2.9601,0,0,0,0,0,0,2.8688,2.8718,2.8935,2.8945,2.8804,2.8921,2.894,2.8991,2.9093,2.9106,2.903,2.9029,2.9186,2.9203,2.922,2.935,2.9275,2.9283,2.9288,2.9595,2.9598,2.9602,0,0,0,0,0,0,2.8682,2.8708,2.8929,2.8832,2.8861,2.8928,2.8986,2.8996,2.9035,2.911,2.9122,2.9058,2.9185,2.9207,2.9312,2.9356,2.9287,2.9296,2.9591,2.9596,2.96,2.9613,0,0,0,0,0,0,2.8673,2.8705,2.8746,2.8833,2.8866,2.9018,2.8989,2.9001,2.905,2.9049,2.9138,2.9151,2.9185,2.9298,2.9321,2.9368,2.9303,2.9588,2.9593,2.9599,2.9609,2.9618,2.9625,0,0,0,0,0,2.8663,2.8745,2.8748,2.8775,2.8919,2.9021,2.9039,2.9076,2.9054,2.9096,2.9143,2.9148,2.9348,2.9309,2.9335,2.9385,2.9585,2.9592,2.9598,2.9606,2.9616,2.9625,0,0,0,0,0,0,2.8663,2.8757,2.8762,2.8874,2.8939,2.9023,2.9077,2.9086,2.9159,2.9155,2.9198,2.9218,2.9321,2.9364,2.9319,2.9493,2.9464,2.9476,2.9461,2.9472,2.9479,2.9466,2.931,0,0,0,0,0,2.8676,2.875,2.8829,2.892,2.8952,2.9009,2.9055,2.9077,2.9147,2.9174,2.923,2.9298,2.9376,2.9426,2.9502,2.9616,2.9635,2.9663,2.9671,2.9677,2.9686,2.9747,2.976,2.9623,2.9623,2.9623,0,0,2.8704,2.8764,2.8809,2.8922,2.8975,2.9051,2.9032,2.9114,2.9171,2.9187,2.9289,2.9332,2.9411,2.952,2.9571,2.9559,2.9728,2.9685,2.9689,2.9696,2.9755,2.9768,2.978,2.9627,2.9627,2.9626,0,0,2.8793,2.8847,2.8928,2.8981,2.9061,2.9098,2.9117,2.92,2.9228,2.9331,2.9344,2.9413,2.9547,2.9602,2.9647,2.9755,2.9762,2.9779,2.9819,2.9879,2.9889,2.9899,2.9936,2.9949,2.9789,2.9789,2.9789,0,2.8818,2.8932,2.8969,2.905,2.9098,2.9115,2.9197,2.9247,2.9348,2.9382,2.9366,2.9533,2.9588,2.9709,2.9735,2.9772,2.9794,2.9769,2.9885,2.9895,2.9905,2.994,2.9954,2.979,2.979,2.979,2.979,0,2.8958,2.9037,2.9093,2.9188,2.9244,2.9325,2.9373,2.9425,2.9442,2.9481,2.9585,2.965,2.9739,2.9769,2.9788,2.9893,2.9883,2.9876,2.9847,2.9918,2.9953,2.9967,2.9792,2.9792,2.9791,2.9791,0,0,2.9052,2.9165,2.9185,2.9227,2.9316,2.9378,2.946,2.9545,2.9588,2.9657,2.9726,2.9838,2.9831,2.9883,2.9908,2.996,3.0039,2.9946,2.9949,2.996,3.0157,3.016,3.0176,3.0044,3.0047,3.0049,3.015,0,2.915,2.9294,2.9329,2.9453,2.9526,2.9542,2.9613,2.9675,2.9713,2.9781,2.9824,2.9901,2.9888,2.9919,2.9971,3.0018,3.0079,3.0012,3.0108,3.0111,3.0086,3.0194,3.0199,3.029,3.0164,3.0166,3.0168,0,2.9283,2.9353,2.9484,2.9561,2.9593,2.9656,2.9736,2.9801,2.9871,2.9895,2.9952,2.9971,3.0056,3.0024,3.0142,3.0095,3.0137,3.0166,3.0171,3.018,3.0143,3.0205,3.0321,3.0334,3.0189,3.0188,3.0186,0,2.9336,2.9464,2.9558,2.9594,2.9687,2.9731,2.9772,2.984,2.9888,2.9959,2.999,3.007,3.0114,3.0175,3.0215,3.0189,3.033,3.0301,3.0351,3.035,3.0379,3.0377,3.0502,3.0409,3.0409,3.0408,3.0408,0,2.9441,2.952,2.9582,2.964,2.9729,2.9768,2.9855,2.9896,2.9956,3.0022,3.0042,3.0104,3.0154,3.0222,3.0255,3.0346,3.0366,3.0388,3.0395,3.0385,3.0382,3.0412,3.0406,3.0412,3.0411,3.041,3.041,0,2.9515,2.956,2.9664,2.9743,2.9764,2.9826,2.9894,2.995,2.9988,3.0072,3.0093,3.0154,3.0235,3.0281,3.0385,3.0406,3.0507,3.0513,3.0483,3.0486,3.0532,3.0527,3.068,3.0702,3.0595,3.0596,3.0597,0,2.9579,2.9639,2.9724,2.9769,2.981,2.9883,2.9932,2.9973,3.0023,3.0107,3.0153,3.0236,3.0303,3.0433,3.0486,3.0565,3.0571,3.0619,3.0583,3.057,3.057,3.0565,3.057,3.0625,3.0626,3.0627,3.0627,0,2.9685,2.9704,2.9773,2.985,2.9908,2.9971,3.0033,3.0069,3.012,3.0176,3.0259,3.0311,3.0415,3.0496,3.0579,3.0622,3.0633,3.0638,3.0654,3.0644,3.0623,3.0633,3.0498,3.0635,3.0634,3.0633,3.0633,3.0633,2.9755,2.9809,2.9876,2.9953,3.0003,3.0061,3.0117,3.0162,3.0231,3.0318,3.0338,3.0424,3.0493,3.0604,3.0649,3.0718,3.0709,3.0732,3.0737,3.0742,3.0742,3.0613,3.0733,3.0733,3.0733,3.0733,3.0733,0,2.9861,2.9905,2.9975,3.006,3.012,3.0125,3.0194,3.0243,3.0319,3.0381,3.0446,3.0541,3.0619,3.0678,3.0758,3.0802,3.0809,3.0821,3.0818,3.0827,3.0746,3.0724,3.0814,3.0814,3.0814,3.0814,3.0814,3.0814,2.9923,3.0014,3.0041,3.0156,3.02,3.0284,3.0323,3.0376,3.0425,3.0529,3.0593,3.0631,3.0691,3.0776,3.0848,3.0863,3.0891,3.0902,3.0918,3.0842,3.0833,3.0824,3.0804,3.0909,3.0909,3.0993,3.0994,3.0994]},{"header":{"parameterUnit":"m.s-1","parameterCategory":1,"la1":30.2991,"la2":30.254,"lo1":-89.0895,"lo2":-89.0444,"dy":0.0017,"dx":0.0017,"nx":28,"ny":28,"refTime":"2025-09-18T21:00:00:Z","depth":0,"parameterNumber":3,"parameterNumberName":"V-component_of_WINDS"},"data":[0,0,0,0,0,0,0,0,0,0,0,0,0,0,0,0,0,0,0,0,0,0,0,0,0,0,0,0,0,0,0,0,0,0,0,0,0,0,0,0,0,0,0,0,0,0,0,0,0,0,0,0,0,0,0,0,0,0,1.8314,1.8315,0,1.8369,1.8369,1.837,1.8333,1.8331,1.8329,1.8328,1.8382,1.8384,1.8387,0,0,0,0,0,0,0,0,0,0,0,0,0,1.8176,1.8179,1.8314,1.8315,1.8316,1.8368,1.8369,1.837,1.8333,1.8331,1.8329,1.8327,1.8381,1.8384,1.8388,0,0,0,0,0,0,0,0,0,0,0,0,0,1.8234,1.818,1.8314,1.8304,1.8303,1.8368,1.8369,1.837,1.8333,1.8331,1.8328,1.8326,1.8379,1.8384,1.8388,1.8466,0,0,1.8402,1.8404,0,0,0,0,0,0,0,0,1.8231,1.8239,1.8304,1.8304,1.8304,1.8341,1.834,1.8402,1.8334,1.8322,1.8328,1.8325,1.837,1.8375,1.8391,1.8469,1.8471,1.8402,1.8405,1.8407,1.8408,0,0,0,0,0,0,0,1.8227,1.8236,1.8336,1.8305,1.8305,1.8295,1.8301,1.8352,1.8359,1.8323,1.832,1.8327,1.8369,1.8387,1.8392,1.8472,1.8402,1.8406,1.8409,1.8411,1.8615,1.8617,0,0,0,0,0,0,1.8224,1.8233,1.8334,1.8337,1.826,1.83,1.8306,1.8332,1.8359,1.836,1.8329,1.8325,1.838,1.8387,1.8394,1.8486,1.8407,1.8411,1.8414,1.8612,1.8615,1.8618,0,0,0,0,0,0,1.8221,1.8233,1.8332,1.8285,1.8296,1.8305,1.8334,1.8334,1.8351,1.8364,1.8365,1.8346,1.8378,1.8387,1.8448,1.8487,1.8413,1.8417,1.8609,1.8613,1.8617,1.8672,0,0,0,0,0,0,1.8217,1.8232,1.8263,1.8286,1.8299,1.8386,1.8337,1.8337,1.8359,1.8355,1.8379,1.8381,1.8377,1.8442,1.8453,1.8492,1.8421,1.8605,1.8611,1.8616,1.8666,1.8677,1.8686,0,0,0,0,0,1.8212,1.8276,1.8264,1.8277,1.8337,1.8389,1.8396,1.8391,1.8363,1.8393,1.8401,1.838,1.8481,1.8448,1.846,1.8502,1.8603,1.8609,1.8615,1.8662,1.8675,1.8686,0,0,0,0,0,0,1.8257,1.8279,1.8266,1.8339,1.8362,1.8382,1.842,1.8406,1.8437,1.8431,1.8423,1.8429,1.8493,1.8503,1.8466,1.8578,1.8537,1.8546,1.8569,1.8581,1.8591,1.8587,1.8424,0,0,0,0,0,1.8275,1.8316,1.8332,1.8395,1.8407,1.8412,1.8434,1.8428,1.8452,1.8461,1.8474,1.8497,1.8533,1.8558,1.8592,1.8667,1.8672,1.8702,1.8712,1.872,1.8728,1.8767,1.8781,1.8638,1.8638,1.8638,0,0,1.8313,1.833,1.8356,1.8404,1.8422,1.8463,1.842,1.8466,1.8497,1.8468,1.8526,1.8536,1.8561,1.8629,1.866,1.864,1.8768,1.8728,1.8734,1.8737,1.8775,1.8788,1.88,1.8643,1.8642,1.8641,0,0,1.8404,1.8421,1.8475,1.8493,1.852,1.8523,1.8536,1.8558,1.8563,1.8622,1.8601,1.8637,1.8701,1.8719,1.8737,1.8834,1.8816,1.8845,1.8897,1.8936,1.8947,1.8957,1.8991,1.9004,1.8853,1.8853,1.8853,0,1.8448,1.851,1.8504,1.8552,1.8573,1.8549,1.8603,1.8621,1.8658,1.8673,1.865,1.8729,1.8744,1.8816,1.884,1.8855,1.8869,1.8843,1.8946,1.8956,1.8965,1.8998,1.9011,1.8856,1.8856,1.8856,1.8855,0,1.8563,1.8606,1.8646,1.8683,1.8709,1.8759,1.876,1.8786,1.8778,1.8783,1.8842,1.8859,1.8897,1.8913,1.8906,1.8984,1.8971,1.8947,1.8907,1.8982,1.9013,1.9025,1.8861,1.886,1.8859,1.8858,0,0,1.8683,1.8716,1.873,1.8746,1.8774,1.8807,1.8856,1.8893,1.8916,1.8942,1.8982,1.9036,1.9015,1.9035,1.9029,1.9063,1.9138,1.9035,1.9035,1.9053,1.9224,1.9242,1.9257,1.9126,1.9128,1.913,1.9222,0,1.8775,1.8861,1.8857,1.8937,1.8977,1.8955,1.8997,1.9018,1.9024,1.9057,1.9063,1.9101,1.907,1.9082,1.9115,1.9122,1.9172,1.9115,1.9163,1.9164,1.9157,1.9272,1.9291,1.9377,1.9234,1.9236,1.9238,0,1.8894,1.8925,1.9009,1.9031,1.9047,1.9086,1.9119,1.9152,1.9175,1.9176,1.9198,1.9187,1.9235,1.9193,1.9259,1.922,1.9239,1.9245,1.9248,1.9253,1.9206,1.928,1.9405,1.9418,1.9256,1.9255,1.9253,0,1.8973,1.9035,1.9094,1.9108,1.9135,1.9162,1.9174,1.9195,1.9217,1.9246,1.926,1.9294,1.9312,1.9338,1.9335,1.9305,1.9402,1.936,1.9404,1.9404,1.9426,1.9425,1.9556,1.9438,1.9438,1.9438,1.9438,0,1.9077,1.9129,1.913,1.9166,1.9224,1.9218,1.9275,1.9283,1.9302,1.9338,1.9321,1.9355,1.9349,1.9384,1.9381,1.9436,1.9445,1.9446,1.9445,1.9448,1.9448,1.9461,1.9454,1.9441,1.9441,1.944,1.9439,0,1.9175,1.9178,1.924,1.926,1.9266,1.9308,1.9324,1.9358,1.9361,1.9408,1.9418,1.9424,1.9463,1.9463,1.9507,1.9506,1.9573,1.9565,1.9565,1.9564,1.9608,1.9604,1.9752,1.9771,1.9641,1.9642,1.9643,0,1.9241,1.9281,1.9305,1.9329,1.9343,1.9381,1.9404,1.9399,1.9423,1.9452,1.9482,1.9519,1.9549,1.9613,1.962,1.9654,1.9647,1.9696,1.9652,1.9653,1.9647,1.9645,1.9649,1.9705,1.9707,1.9708,1.9709,0,1.9357,1.9356,1.939,1.9425,1.9453,1.948,1.9504,1.9524,1.9522,1.955,1.959,1.9613,1.9659,1.9696,1.9729,1.974,1.9724,1.9723,1.9735,1.9738,1.9737,1.9738,1.9589,1.9719,1.9718,1.9717,1.9717,1.9716,1.9441,1.9475,1.9498,1.9536,1.9554,1.9577,1.961,1.9618,1.9651,1.9689,1.9683,1.9728,1.9749,1.9791,1.9805,1.9839,1.9822,1.9839,1.9844,1.9848,1.9853,1.9731,1.9845,1.9845,1.9845,1.9844,1.9844,0,1.9556,1.9569,1.9605,1.964,1.967,1.9652,1.9679,1.9704,1.9745,1.9766,1.9796,1.9842,1.9878,1.9888,1.9922,1.9948,1.9941,1.9957,1.9955,1.9958,1.9867,1.9853,1.9962,1.9962,1.9962,1.9962,1.9961,1.9961,1.9619,1.9676,1.9678,1.9744,1.9756,1.9801,1.9817,1.9838,1.9855,1.9907,1.9937,1.9944,1.996,1.9996,2.0028,2.003,2.0043,2.0062,2.0061,1.9976,1.9964,1.9953,1.994,2.0065,2.0065,2.0149,2.015,2.015]}]]